Location: Peebles
(55.6412°N, 3.1714°W)
Time: 15:05:28
(UTC+01:00)

USA 238 DEB - Pass Details

Date: 26 September 2021
Orbit: 980 x 1232 km, 63.4° (Epoch: 15 October)

Event Time Altitude Azimuth Distance (km) Brightness Sun altitude
Rises 23:26:20 0° 245° (WSW) 3,739 6.6 -32.5°
Reaches altitude 10° 23:28:54 10° 248° (WSW) 2,816 5.9 -32.7°
Maximum altitude 23:35:31 67° 331° (NNW) 1,157 3.9 -33.1°
Drops below altitude 10° 23:42:36 10° 54° (NE) 3,001 6.1 -33.5°
Sets 23:45:24 0° 57° (ENE) 4,000 6.8 -33.7°
